Morristown, NJ

4:22 AM EDT on March 27, 2017 (GMT -0400)
Morristown Municipal

Weather History for KMMU - December, 2012

Change the Weather History Date:

Monday, December 24, 2012

  Actual Average Record
Temperature  
Mean Temperature 29 °F -  
Max Temperature 37 °F 39 °F 69 °F (2015)
Min Temperature 21 °F 20 °F -9 °F (1945)
Degree Days  
Heating Degree Days 36    
Moisture  
Dew Point 25 °F    
Average Humidity 88    
Maximum Humidity 100    
Minimum Humidity 52    
Precipitation  
Precipitation 0.00 in - - ()
Sea Level Pressure  
Sea Level Pressure 30.00 in    
Wind  
Wind Speed 1 mph (NE)    
Max Wind Speed 7 mph    
Max Gust Speed -    
Visibility 8 miles    
Events Snow    
Averages and records for this station are not official NWS values.
T = Trace of Precipitation, MM = Missing Value Source: NWS Daily Summary

Daily Weather History Graph

Daily Weather History Graph

Search for Another Location

Airport or City:

Trip Planner

Search our weather history database for the weather conditions in past years. The results will help you decide how hot, cold, wet, or windy it might be!

Date:

Astronomy

Dec. 24, 2012 Rise Set
Actual Time 7:20 AM EST 4:35 PM EST
Civil Twilight 6:48 AM EST 5:06 PM EST
Nautical Twilight 6:14 AM EST 5:40 PM EST
Astronomical Twilight 5:41 AM EST 6:14 PM EST
Moon 2:01 PM EST (12/24) 3:55 AM EST (12/24)
Length of Visible Light 10h 17m
Length of Day
9h 15m
Waxing Gibbous, 88% of the Moon is Illuminated
Dec 24
Waxing Gibbous
Dec 28
Full
Jan 4
Last Quarter
Jan 11
New
Jan 18
First Quarter

Hourly Weather History & Observations

Time (EST) Temp. Windchill Dew Point Humidity Pressure Visibility Wind Dir Wind Speed Gust Speed Precip Events Conditions
12:15 AM 26.6 °F - 24.8 °F 93% 29.96 in 10.0 mi Calm Calm - N/A   Clear
12:35 AM 23.0 °F - 23.0 °F 100% 29.97 in 10.0 mi Calm Calm - N/A   Clear
12:55 AM 24.8 °F - 24.8 °F 100% 29.96 in 10.0 mi Calm Calm - N/A   Clear
1:15 AM 24.8 °F - 24.8 °F 100% 29.97 in 10.0 mi Calm Calm - N/A   Clear
1:35 AM 23.0 °F - 23.0 °F 100% 29.98 in 10.0 mi Calm Calm - N/A   Clear
1:55 AM 24.8 °F - 23.0 °F 93% 29.98 in 10.0 mi Calm Calm - N/A   Clear
2:15 AM 24.8 °F - 23.0 °F 93% 29.99 in 10.0 mi Calm Calm - N/A   Clear
2:35 AM 23.0 °F - 23.0 °F 100% 29.99 in 10.0 mi Calm Calm - N/A   Clear
2:55 AM 23.0 °F - 23.0 °F 100% 30.00 in 10.0 mi Calm Calm - N/A   Clear
3:15 AM 23.0 °F - 23.0 °F 100% 30.00 in 10.0 mi Calm Calm - N/A   Clear
3:35 AM 23.0 °F - 23.0 °F 100% 29.99 in 10.0 mi Calm Calm - N/A   Clear
3:55 AM 23.0 °F - 21.2 °F 93% 30.00 in 10.0 mi Calm Calm - N/A   Clear
4:15 AM 23.0 °F - 23.0 °F 100% 30.00 in 10.0 mi Calm Calm - N/A   Clear
4:35 AM 23.0 °F - 21.2 °F 93% 30.00 in 10.0 mi Calm Calm - N/A   Clear
4:55 AM 23.0 °F - 23.0 °F 100% 30.00 in 10.0 mi Calm Calm - N/A   Clear
5:15 AM 23.0 °F - 23.0 °F 100% 30.01 in 10.0 mi Calm Calm - N/A   Clear
5:35 AM 23.0 °F - 23.0 °F 100% 30.02 in 10.0 mi Calm Calm - N/A   Clear
6:45 AM 21.2 °F - 19.4 °F 93% 30.04 in 10.0 mi Calm Calm - N/A   Clear
7:45 AM 23.0 °F - 21.2 °F 93% 30.07 in 10.0 mi Calm Calm - N/A   Clear
8:45 AM 30.2 °F 26.7 °F 24.8 °F 80% 30.09 in 10.0 mi WNW 3.5 mph - N/A   Clear
9:45 AM 33.8 °F 30.8 °F 23.0 °F 65% 30.10 in 10.0 mi WNW 3.5 mph - N/A   Overcast
10:45 AM 35.6 °F - 23.0 °F 60% 30.09 in 10.0 mi Calm Calm - N/A   Clear
11:45 AM 37.4 °F 33.8 °F 21.2 °F 52% 30.07 in 10.0 mi North 4.6 mph - N/A   Overcast
12:45 PM 37.4 °F 32.8 °F 23.0 °F 56% 30.04 in 10.0 mi ESE 5.8 mph - N/A   Overcast
1:45 PM 37.4 °F 34.9 °F 21.2 °F 52% 30.06 in 10.0 mi South 3.5 mph - N/A   Overcast
2:45 PM 37.4 °F 34.9 °F 21.2 °F 52% 30.04 in 10.0 mi SE 3.5 mph - N/A   Overcast
3:45 PM 37.4 °F - 21.2 °F 52% 30.04 in 10.0 mi Calm Calm - N/A   Overcast
4:45 PM 33.8 °F - 23.0 °F 65% 30.03 in 10.0 mi Calm Calm - N/A   Overcast
5:45 PM 33.8 °F - 24.8 °F 70% 30.02 in 10.0 mi Calm Calm - N/A   Mostly Cloudy
6:45 PM 33.8 °F - 26.6 °F 75% 30.02 in 10.0 mi Calm Calm - N/A   Overcast
7:15 PM 30.2 °F 23.4 °F 26.6 °F 86% 30.01 in 2.5 mi South 6.9 mph - N/A Snow Snow
7:45 PM 33.8 °F 29.6 °F 30.2 °F 87% 30.01 in 2.5 mi South 4.6 mph - N/A Snow Snow
8:45 PM 33.8 °F - 30.2 °F 87% 29.98 in 1.0 mi Calm Calm - N/A Snow Light Snow
9:45 PM 32.0 °F - 32.0 °F 100% 29.97 in 1.5 mi Calm Calm - N/A   Overcast
9:55 PM 32.0 °F - 32.0 °F 100% 29.96 in 2.5 mi Calm Calm - N/A Snow Light Snow
10:15 PM 32.0 °F 28.7 °F 32.0 °F 100% 29.96 in 4.0 mi North 3.5 mph - N/A   Overcast
10:35 PM 32.0 °F 28.7 °F 32.0 °F 100% 29.96 in 4.0 mi NNE 3.5 mph - N/A   Overcast
10:55 PM 32.0 °F 28.7 °F 32.0 °F 100% 29.95 in 4.0 mi NNE 3.5 mph - N/A   Overcast
11:15 PM 32.0 °F - 32.0 °F 100% 29.95 in 3.0 mi Calm Calm - N/A Snow Light Snow
11:35 PM 32.0 °F - 32.0 °F 100% 29.95 in 3.0 mi Calm Calm - N/A   Overcast
11:55 PM 32.0 °F 28.7 °F 32.0 °F 100% 29.93 in 2.5 mi NNE 3.5 mph - N/A   Overcast